Simultaneous Nadir Overpasses (SNOs) Predictions

Prediction of SNOs between GOES-16 and AQUA Satellite Orbit:

Table of predicted SNOs for the next 14.0 days since TLE Epoch: 10/5/2019
Index Date Time (GOES-16) GOES-16 Lat,Lon AQUA Lat,Lon Distance(km) Time Diff (sec)
1 10/06/2019 18:29:11 -0.00, -75.21 0.46, -73.17 231.60 80
2 10/07/2019 06:50:26 -0.00, -75.21 0.64, -78.33 354.06 80
3 10/09/2019 06:38:15 -0.00, -75.23 0.00, -75.38 16.58 80
4 10/11/2019 06:23:23 -0.00, -75.25 -0.58, -72.41 322.16 80
5 10/11/2019 18:44:48 0.00, -75.26 -0.51, -77.61 268.01 80
6 10/13/2019 18:35:17 -0.00, -75.29 0.14, -74.66 71.41 80
7 10/15/2019 18:23:05 -0.01, -75.32 0.73, -71.70 411.30 80
8 10/16/2019 06:44:21 0.01, -75.33 0.32, -76.86 173.63 80
9 10/18/2019 06:29:29 0.02, -75.37 -0.27, -73.90 166.55 80
10 10/18/2019 18:50:54 -0.02, -75.37 -0.79, -79.10 423.28 80




NCC Satellite Simultaneous Nadir Overpasses (SNOs) Prediction Service
